Location: Clyde
(45.1830°S, 169.3170°E)
Time: 09:30:00
(UTC+12:00)

SL-16 R/B - Pass Details

Date: 14 May 2021
Orbit: 842 x 848 km, 71.0° (Epoch: 15 June)

Event Time Altitude Azimuth Distance (km) Brightness Sun altitude
Rises 20:03:59 0° 338° (NNW) 3,393 5.6 -28.0°
Reaches altitude 10° 20:06:25 10° 338° (NNW) 2,466 4.8 -28.4°
Enters shadow 20:10:51 57° 343° (NNW) 996 2.5 -29.2°
